Home > Weather > Arnhem > Past weeks

Flag for Netherlands Weather for the Past 2 Weeks in Arnhem, Netherlands

Now
66 °F

Mild.


Feels Like: 66 °F
Forecast: 50 / 73 °F
Wind: 9 mph from Southeast

Location: Deelen

Current Time: May 5, 2016 at 5:03:13 PM

Latest Report: May 5, 2016 at 4:25 PM


Visibility: N/A

Pressure: 30.18 "Hg

Humidity: 32%

Dew Point: 36 °F

Location of ArnhemLocation

Historic Weather in Arnhem — Graph

°F

Arnhem Temperature Yesterday

Maximum temperature yesterday: 61 °F (at 4:25 PM)
Minimum temperature yesterday: 32 °F (at 3:25 AM)
Average temperature yesterday: 48 °F

High & Low Weather Summary for the Past Weeks

 TemperatureHumidityPressure
High64 °F (May 2, 2:55 PM)100% (Apr 23, 11:25 PM)30.45 "Hg (Apr 23, 11:25 PM)
Low32 °F (Apr 24, 2:55 AM)28% (May 5, 2:55 PM)29.45 "Hg (Apr 26, 5:55 AM)
Average45 °F73%30.04 "Hg
* Reported Apr 20 3:25 PM — May 5 3:55 PM, Arnhem, Weather by CustomWeather, © 2016

Note: Actual official high and low records may vary slightly from our data, if they occured in-between our weather recording intervals... More about our weather records

Advertising

Arnhem Weather History for the Previous 24 Hours

Scroll right to see more
 ConditionsComfort  
Time TempWeatherWind HumidityBarometerVisibility
3:55 PM
Thu, May 5
64 °FPassing clouds.8 mph34%30.18 "HgN/A
3:25 PM64 °FMild.10 mph32%30.21 "HgN/A
2:55 PM64 °FPassing clouds.9 mph28%30.21 "HgN/A
2:25 PM64 °FMild.16 mph30%30.21 "HgN/A
1:55 PM63 °FMild.13 mph30%30.24 "HgN/A
1:25 PM63 °FMild.14 mph34%30.24 "HgN/A
12:55 PM61 °FRefreshingly cool.13 mph34%30.27 "HgN/A
12:25 PM61 °FRefreshingly cool.13 mph34%30.27 "HgN/A
11:55 AM61 °FPassing clouds.10 mph31%30.27 "HgN/A
11:25 AM61 °FPassing clouds.10 mph39%30.27 "HgN/A
10:55 AM59 °FRefreshingly cool.12 mph45%30.30 "HgN/A
10:25 AM59 °FPassing clouds.12 mph45%30.30 "HgN/A
9:55 AM55 °FPassing clouds.13 mph47%30.30 "HgN/A
9:25 AM54 °FCool.12 mph47%30.30 "HgN/A
8:55 AM52 °FPassing clouds.10 mph54%30.30 "HgN/A
8:25 AM52 °FPassing clouds.9 mph50%30.30 "HgN/A
7:55 AM48 °FCool.6 mph62%30.30 "HgN/A
7:25 AM46 °FPassing clouds.6 mph62%30.30 "HgN/A
6:55 AM43 °FQuite cool.6 mph71%30.30 "HgN/A
6:25 AM43 °FPassing clouds.8 mph71%30.30 "HgN/A
5:55 AM45 °FQuite cool.8 mph66%30.30 "HgN/A
5:25 AM45 °FPassing clouds.8 mph66%30.30 "HgN/A
4:55 AM45 °FPassing clouds.7 mph66%30.30 "HgN/A
4:25 AM45 °FQuite cool.9 mph66%30.30 "HgN/A
3:55 AM46 °FPassing clouds.9 mph62%30.30 "HgN/A
3:25 AM46 °FCool.9 mph62%30.30 "HgN/A
2:55 AM48 °FPassing clouds.7 mph58%30.33 "HgN/A
2:25 AM48 °FPassing clouds.6 mph54%30.33 "HgN/A
1:55 AM48 °FPassing clouds.7 mph54%30.33 "HgN/A
1:25 AM46 °FCool.6 mph57%30.33 "HgN/A
12:55 AM46 °FPassing clouds.6 mph57%30.33 "HgN/A
12:25 AM48 °FCool.6 mph58%30.33 "HgN/A
11:55 PM
Wed, May 4
48 °FCool.6 mph58%30.33 "HgN/A
11:25 PM48 °FCool.6 mph58%30.33 "HgN/A
10:55 PM45 °FQuite cool.3 mph66%30.33 "HgN/A
10:25 PM46 °FCool.3 mph66%30.33 "HgN/A
9:55 PM45 °FQuite cool.5 mph71%30.33 "HgN/A
9:25 PM52 °FCool.5 mph50%30.33 "HgN/A
8:55 PM54 °FPassing clouds.6 mph47%30.33 "HgN/A
8:25 PM57 °FPassing clouds.7 mph41%30.33 "HgN/A
7:55 PM57 °FRefreshingly cool.7 mph41%30.33 "HgN/A
7:25 PM59 °FPassing clouds.9 mph39%30.33 "HgN/A
6:55 PM59 °FPassing clouds.6 mph36%30.33 "HgN/A
6:25 PM59 °FRefreshingly cool.7 mph39%30.36 "HgN/A
5:55 PM61 °FRefreshingly cool.6 mph34%30.36 "HgN/A
5:25 PM59 °FScattered clouds.7 mph39%30.36 "HgN/A
Weather by CustomWeather, © 2016

See weather overviewHow to use our weather pages